"2010-08-09 00:00:00",55021,4.987,193.1,11.44,0.392,22.03,110.143,25.26,26.13,31.24,0,111.3,13.09,26.10,155.1
"2010-08-09 00:00:30",55022,5.744,165.9,7.043,0.406,22.16,110.1391,25.25,26.13,31.31,0,111.3,13.09,26.09,127.9
"2010-08-09 00:01:00",55023,6.004,169.3,3.648,0.483,22.22,110.14,25.25,26.12,31.38,0,111.3,13.09,26.09,131.3
"2010-08-09 00:01:30",55024,5.155,164.3,4.952,0.294,22.23,110.1394,25.25,26.12,31.4,0,111.3,13.09,26.09,126.3
"2010-08-09 00:02:00",55025,4.828,165.5,9.45,0.264,22.42,110.1358,25.24,26.12,31.35,0,111.3,13.09,26.08,127.5
"2010-08-09 00:02:30",55026,5.359,156.2,4.717,0.364,22.56,110.1329,25.24,26.12,31.28,0,111.3,13.09,26.08,118.2
"2010-08-09 00:03:00",55027,5.608,163.2,4.589,0.447,22.65,110.1313,25.23,26.12,31.16,0,111.3,13.08,26.07,125.2
"2010-08-09 00:03:30",55028,6.997,163.6,7.231,0.641,22.74,110.1313,25.23,26.09,31.06,0,111.3,13.08,26.07,125.6
"2010-08-09 00:04:00",55029,6.484,159.6,4.606,0.46,22.78,110.1313,25.23,26.11,31.08,0,111.3,13.08,26.07,121.6
"2010-08-09 00:04:30",55030,6.93,163,6.178,0.543,22.74,110.1287,25.23,26.11,31.01,0,111.3,13.08,26.07,125.0
"2010-08-09 00:05:00",55031,7.156,155.1,2.026,0.665,22.73,110.1097,25.18,26.1,30.97,0,111.3,13.08,26.02,117.1
"2010-08-09 00:05:30",55032,6.602,162.3,5.356,0.185,22.75,110.1015,25.16,26.08,30.98,0,111.3,13.08,26.00,124.3
"2010-08-09 00:06:00",55033,6.386,166,2.585,0.269,22.71,110.0976,25.15,26.06,31.01,0,111.3,13.08,25.98,128.0
"2010-08-09 00:06:30",55034,5.984,167.5,2.664,0.352,22.66,110.0906,25.13,26.04,31.07,0,111.3,13.08,25.97,129.5
"2010-08-09 00:07:00",55035,6.455,165.7,1.624,0.183,22.65,110.0721,25.08,26.03,31.06,0,111.3,13.08,25.92,127.7
"2010-08-09 00:07:30",55036,6.55,163.4,1.037,0.102,22.7,110.0645,25.06,26.01,31.09,0,111.3,13.08,25.90,125.4
"2010-08-09 00:08:00",55037,6.314,165.5,1.805,0.189,22.77,110.0637,25.06,25.99,31.13,0,111.3,13.08,25.90,127.5
"2010-08-09 00:08:30",55038,6.146,175.7,5.034,0.264,22.8,110.0564,25.04,25.98,31.11,0,111.3,13.09,25.88,137.7
"2010-08-09 00:09:00",55039,5.875,172.8,6.725,0.58,22.75,110.0472,25.02,25.97,31.14,0,111.3,13.09,25.86,134.8
"2010-08-09 00:09:30",55040,5.296,164,6.588,0.619,22.76,110.0455,25.01,25.96,31.17,0,111.3,13.09,25.85,126.0
"2010-08-09 00:10:00",55041,5.804,164.8,1.022,0.11,22.79,110.0534,25.03,25.96,31.08,0,111.3,13.09,25.87,126.8
"2010-08-09 00:10:30",55042,5.683,162.6,3.067,0.16,22.82,110.0528,25.03,25.96,31.08,0,111.3,13.09,25.87,124.6
"2010-08-09 00:11:00",55043,5.61,158.3,1.574,0.153,22.79,110.0559,25.04,25.93,31.13,0,111.3,13.09,25.88,120.3
"2010-08-09 00:11:30",55044,5.222,152.5,3.475,0.185,22.76,110.0581,25.04,25.92,31.2,0,111.3,13.09,25.88,114.5
"2010-08-09 00:12:00",55045,4.872,153.3,2.03,0.088,22.72,110.0581,25.04,25.92,31.2,0,111.3,13.09,25.88,115.3
"2010-08-09 00:12:30",55046,4.975,156.7,1.157,0.121,22.72,110.0578,25.04,25.91,31.2,0,111.3,13.09,25.88,118.7
"2010-08-09 00:13:00",55047,4.931,159.3,4.215,0.159,22.76,110.0483,25.02,25.91,31.22,0,111.3,13.09,25.86,121.3
"2010-08-09 00:13:30",55048,5.216,156.4,2.411,0.184,22.82,110.0442,25.01,25.89,31.21,0,111.3,13.09,25.85,118.4
"2010-08-09 00:14:00",55049,5.849,151.7,5.381,0.621,22.84,110.0573,25.04,25.9,31.14,0,111.3,13.09,25.88,113.7
"2010-08-09 00:14:30",55050,5.558,162.9,4.702,0.485,22.84,110.0656,25.06,25.9,31.09,0,111.3,13.09,25.90,124.9
"2010-08-09 00:15:00",55051,5.893,162.8,1.762,0.206,22.84,110.067,25.07,25.89,30.98,0,111.3,13.09,25.91,124.8
"2010-08-09 00:15:30",55052,5.624,162.3,2.152,0.329,22.84,110.067,25.07,25.91,30.96,0,111.3,13.1,25.91,124.3
"2010-08-09 00:16:00",55053,5.6,160.3,3.428,0.124,22.76,110.0657,25.06,25.91,30.86,0,111.2,13.1,25.90,122.3
"2010-08-09 00:16:30",55054,5.491,159.2,2.592,0.217,22.81,110.0665,25.07,25.9,30.92,0,111.2,13.1,25.90,121.2
"2010-08-09 00:17:00",55055,5.283,157.2,4.091,0.258,22.79,110.0657,25.06,25.91,30.96,0,111.2,13.1,25.90,119.2
"2010-08-09 00:17:30",55056,4.827,150.1,9.88,0.341,22.71,110.0668,25.07,25.92,30.91,0,111.2,13.1,25.91,112.1
"2010-08-09 00:18:00",55057,5.346,145.8,2.309,0.233,22.6,110.0645,25.06,25.92,30.83,0,111.3,13.1,25.90,107.8
"2010-08-09 00:18:30",55058,5.63,147.5,3.914,0.43,22.7,110.0642,25.06,25.92,30.79,0,111.2,13.1,25.90,109.5
"2010-08-09 00:19:00",55059,5.554,142.9,4.022,0.336,22.72,110.0645,25.06,25.92,30.74,0,111.2,13.1,25.90,104.9
"2010-08-09 00:19:30",55060,5.826,152.6,8.51,0.317,22.84,110.0623,25.05,25.91,30.77,0,111.2,13.1,25.89,114.6
"2010-08-09 00:20:00",55061,5.281,156.2,4.287,0.333,22.84,110.067,25.07,25.93,30.81,0,111.2,13.09,25.91,118.2
"2010-08-09 00:20:30",55062,4.961,155.6,2.873,0.264,22.79,110.0673,25.07,25.93,30.78,0,111.2,13.09,25.91,117.6
"2010-08-09 00:21:00",55063,5.346,150.8,3.235,0.442,22.77,110.0676,25.07,25.94,30.67,0,111.2,13.1,25.91,112.8
"2010-08-09 00:21:30",55064,6.586,152.7,2.481,0.466,22.78,110.0672,25.07,25.94,30.63,0,111.2,13.09,25.91,114.7
"2010-08-09 00:22:00",55065,6.368,151.6,2.407,0.241,22.75,110.0676,25.07,25.93,30.64,0,111.2,13.09,25.91,113.6
"2010-08-09 00:22:30",55066,6.001,149.8,1.151,0.187,22.67,110.0685,25.07,25.93,30.61,0,111.2,13.09,25.91,111.8
"2010-08-09 00:23:00",55067,6.346,148.9,1.618,0.268,22.54,110.0677,25.07,25.93,30.58,0,111.2,13.09,25.91,110.9
"2010-08-09 00:23:30",55068,6.075,150.6,1.034,0.161,22.44,110.0706,25.08,25.94,30.59,0,111.2,13.09,25.92,112.6
"2010-08-09 00:24:00",55069,5.814,151,1.284,0.322,22.34,110.0745,25.09,25.94,30.64,0,111.2,13.09,25.93,113.0
"2010-08-09 00:24:30",55070,5.581,149.9,4.959,0.436,22.27,110.0822,25.11,25.94,30.59,0,111.2,13.09,25.95,111.9
"2010-08-09 00:25:00",55071,5.224,148.7,6.332,0.315,22.46,110.0878,25.12,25.95,30.58,0,111.2,13.09,25.96,110.7
"2010-08-09 00:25:30",55072,4.954,153.6,5.001,0.275,22.55,110.0907,25.13,25.95,30.58,0,111.2,13.1,25.97,115.6
"2010-08-09 00:26:00",55073,5.625,152,8.21,0.267,22.37,110.0904,25.13,25.97,30.61,0,111.2,13.1,25.97,114.0
"2010-08-09 00:26:30",55074,5.974,144,2.858,0.409,22.28,110.0957,25.14,25.96,30.63,0,111.2,13.1,25.98,106.0
"2010-08-09 00:27:00",55075,5.627,148.2,5.995,0.264,22.28,110.0971,25.14,25.96,30.62,0,111.2,13.1,25.98,110.2
"2010-08-09 00:27:30",55076,5.463,169.8,4.419,0.37,22.37,110.0951,25.14,25.96,30.68,0,111.2,13.1,25.98,131.8
"2010-08-09 00:28:00",55077,5.494,159.1,6.047,0.391,22.32,110.1019,25.16,25.97,30.69,0,111.2,13.1,26.00,121.1
"2010-08-09 00:28:30",55078,5.434,151.8,3.437,0.287,22.17,110.1016,25.16,25.97,30.59,0,111.2,13.1,26.00,113.8
"2010-08-09 00:29:00",55079,5.155,157,2.819,0.162,22.24,110.1029,25.16,25.98,30.6,0,111.2,13.1,26.00,119.0
"2010-08-09 00:29:30",55080,4.97,155.9,3.941,0.159,22.41,110.1032,25.16,25.99,30.67,0,111.2,13.1,26.00,117.9
"2010-08-09 00:30:00",55081,5.688,147.1,3.538,0.338,22.49,110.1029,25.16,25.97,30.63,0,111.2,13.1,26.00,109.1
"2010-08-09 00:30:30",55082,5.932,144.5,1.502,0.162,22.56,110.1033,25.16,25.99,30.63,0,111.2,13.1,26.00,106.5
"2010-08-09 00:31:00",55083,5.37,143.4,2.927,0.362,22.56,110.1016,25.16,25.98,30.68,0,111.2,13.1,26.00,105.4
"2010-08-09 00:31:30",55084,5.249,143,2.075,0.229,22.47,110.1024,25.16,25.98,30.7,0,111.2,13.1,26.00,105.0
"2010-08-09 00:32:00",55085,5.276,152.8,7.745,0.262,22.46,110.1036,25.16,25.98,30.75,0,111.2,13.1,26.00,114.8
"2010-08-09 00:32:30",55086,5.911,159.7,3.488,0.498,22.44,110.1044,25.16,25.98,30.79,0,111.2,13.1,26.00,121.7
"2010-08-09 00:33:00",55087,5.364,158.9,4.81,0.259,22.4,110.1044,25.16,25.99,30.87,0,111.2,13.1,26.00,120.9
"2010-08-09 00:33:30",55088,4.601,157,4.644,0.236,22.27,110.1044,25.16,26,30.84,0,111.2,13.1,26.00,119.0
"2010-08-09 00:34:00",55089,4.465,159.2,3.55,0.297,22.3,110.1044,25.16,26.01,30.78,0,111.2,13.1,26.00,121.2
"2010-08-09 00:34:30",55090,5.224,160.1,5.804,0.236,22.25,110.1047,25.16,26.01,30.68,0,111.2,13.1,26.00,122.1
"2010-08-09 00:35:00",55091,5.349,163.5,3.435,0.235,22.27,110.1123,25.18,26.02,30.67,0,111.2,13.1,26.02,125.5
"2010-08-09 00:35:30",55092,5.104,153.6,4.226,0.289,22.16,110.1131,25.19,26.03,30.65,0,111.2,13.1,26.02,115.6
"2010-08-09 00:36:00",55093,4.694,147.7,3.13,0.136,22.19,110.1128,25.18,26.04,30.76,0,111.2,13.1,26.02,109.7
"2010-08-09 00:36:30",55094,4.891,150.1,6.116,0.475,22.19,110.1128,25.18,26.04,30.76,0,111.2,13.1,26.02,112.1
"2010-08-09 00:37:00",55095,4.606,157.1,8.4,0.329,22.2,110.1128,25.18,26.04,30.79,0,111.2,13.1,26.02,119.1
"2010-08-09 00:37:30",55096,4.091,150.6,6.582,0.302,22.15,110.1128,25.18,26.04,30.79,0,111.2,13.1,26.02,112.6
"2010-08-09 00:38:00",55097,4.555,155.8,7.842,0.203,22.23,110.1128,25.18,26.03,30.56,0,111.2,13.1,26.02,117.8
"2010-08-09 00:38:30",55098,4.131,157.6,3.639,0.197,22.22,110.1125,25.18,26.06,30.53,0,111.2,13.1,26.02,119.6
"2010-08-09 00:39:00",55099,4.032,156.9,2.328,0.16,22.36,110.1131,25.19,26.06,30.51,0,111.2,13.1,26.02,118.9
"2010-08-09 00:39:30",55100,5.002,157.9,2.49,0.362,22.51,110.1128,25.18,26.06,30.52,0,111.2,13.1,26.02,119.9
"2010-08-09 00:40:00",55101,5.097,156.8,2.54,0.168,22.54,110.1103,25.18,26.05,30.52,0,111.2,13.1,26.02,118.8
"2010-08-09 00:40:30",55102,4.902,156.6,4.142,0.189,22.62,110.1044,25.16,26.04,30.55,0,111.2,13.1,26.00,118.6
"2010-08-09 00:41:00",55103,4.97,163.7,4.626,0.249,22.72,110.1044,25.16,26.03,30.61,0,111.2,13.1,26.00,125.7
"2010-08-09 00:41:30",55104,4.877,157.5,3.886,0.414,22.74,110.1044,25.16,26.01,30.6,0,111.2,13.1,26.00,119.5
"2010-08-09 00:42:00",55105,5.124,151.1,1.33,0.192,22.68,110.103,25.16,26.01,30.59,0,111.2,13.1,26.00,113.1
"2010-08-09 00:42:30",55106,5.242,149.1,2.397,0.208,22.7,110.0963,25.14,26,30.61,0,111.2,13.1,25.98,111.1
"2010-08-09 00:43:00",55107,5.33,151.9,2.782,0.25,22.7,110.0845,25.11,26.02,30.63,0,111.2,13.11,25.95,113.9
"2010-08-09 00:43:30",55108,4.848,151,2.768,0.288,22.59,110.0828,25.11,26.01,30.68,0,111.2,13.11,25.95,113.0
"2010-08-09 00:44:00",55109,4.658,148.8,2.383,0.276,22.46,110.0842,25.11,26.01,30.68,0,111.2,13.11,25.95,110.8
"2010-08-09 00:44:30",55110,5.06,149.5,6.207,0.357,22.5,110.0876,25.12,26.01,30.67,0,111.2,13.11,25.96,111.5
"2010-08-09 00:45:00",55111,5.1,165.6,4.384,0.209,22.53,110.087,25.12,26,30.71,0,111.2,13.11,25.96,127.6
"2010-08-09 00:45:30",55112,4.997,167.7,6.378,0.302,22.6,110.0876,25.12,26.01,30.73,0,111.2,13.11,25.96,129.7
"2010-08-09 00:46:00",55113,4.594,177.3,4.51,0.359,22.56,110.089,25.12,26.01,30.79,0,111.2,13.11,25.96,139.3
"2010-08-09 00:46:30",55114,4.501,171.3,4.492,0.438,22.55,110.0839,25.11,26.01,30.8,0,111.2,13.11,25.95,133.3
"2010-08-09 00:47:00",55115,5.096,168,2.023,0.252,22.53,110.0808,25.1,26,30.83,0,111.2,13.11,25.94,130.0
"2010-08-09 00:47:30",55116,5.405,165.1,2.322,0.161,22.55,110.0794,25.1,26.01,30.74,0,111.2,13.11,25.94,127.1
"2010-08-09 00:48:00",55117,5.481,165.2,2.424,0.101,22.63,110.0789,25.1,26,30.87,0,111.2,13.11,25.94,127.2
"2010-08-09 00:48:30",55118,5.485,167.8,2.215,0.314,22.72,110.0783,25.1,25.99,30.9,0,111.2,13.11,25.94,129.8
"2010-08-09 00:49:00",55119,5.004,166.5,2.323,0.211,22.72,110.0758,25.09,25.99,30.82,0,111.2,13.11,25.93,128.5
"2010-08-09 00:49:30",55120,5.741,163.9,1.804,0.198,22.73,110.0713,25.08,25.99,30.76,0,111.2,13.11,25.92,125.9
"2010-08-09 00:50:00",55121,5.558,168.4,3.805,0.28,22.7,110.0713,25.08,25.98,30.86,0,111.2,13.11,25.92,130.4
"2010-08-09 00:50:30",55122,5.549,177.2,2.206,0.318,22.55,110.0767,25.09,26,30.87,0,111.2,13.11,25.93,139.2
"2010-08-09 00:51:00",55123,5.19,176.4,3.749,0.286,22.49,110.0786,25.1,25.99,30.84,0,111.2,13.11,25.94,138.4
"2010-08-09 00:51:30",55124,4.929,171.9,5.559,0.329,22.45,110.0817,25.1,26,30.93,0,111.2,13.11,25.94,133.9
"2010-08-09 00:52:00",55125,5.193,161.7,4.765,0.292,22.43,110.0935,25.13,26,30.89,0,111.2,13.11,25.97,123.7
"2010-08-09 00:52:30",55126,4.387,170.8,5.881,0.54,22.36,110.1041,25.16,26.01,30.98,0,111.2,13.11,26.00,132.8
"2010-08-09 00:53:00",55127,4.093,165.4,1.845,0.184,22.2,110.1027,25.16,26.02,30.85,0,111.2,13.11,26.00,127.4
"2010-08-09 00:53:30",55128,4.74,158.6,4.733,0.591,22.22,110.0884,25.12,26.01,31,0,111.2,13.11,25.96,120.6
"2010-08-09 00:54:00",55129,5.746,164,2.699,0.463,22.32,110.0884,25.12,26.01,30.99,0,111.2,13.11,25.96,126.0
"2010-08-09 00:54:30",55130,5.208,168.1,2.909,0.263,22.3,110.1008,25.15,26.02,31.08,0,111.2,13.11,25.99,130.1
"2010-08-09 00:55:00",55131,4.846,162.6,2.115,0.172,22.27,110.1039,25.16,26.02,31.11,0,111.2,13.11,26.00,124.6
"2010-08-09 00:55:30",55132,5.383,164.4,6.342,0.272,22.2,110.1044,25.16,26.02,31.07,0,111.2,13.1,26.00,126.4
"2010-08-09 00:56:00",55133,5.792,161.4,3.163,0.282,22.25,110.1044,25.16,26.03,30.87,0,111.2,13.1,26.00,123.4
"2010-08-09 00:56:30",55134,5.482,163.9,1.912,0.229,22.22,110.1044,25.16,26.03,30.77,0,111.2,13.1,26.00,125.9
"2010-08-09 00:57:00",55135,5.23,166.9,3.373,0.209,22.19,110.1044,25.16,26.03,30.8,0,111.2,13.1,26.00,128.9
"2010-08-09 00:57:30",55136,5.671,174.1,1.627,0.288,22.27,110.1027,25.16,26.02,31.03,0,111.2,13.1,26.00,136.1
"2010-08-09 00:58:00",55137,6.19,170.5,3.271,0.296,22.31,110.094,25.14,26.02,30.82,0,111.2,13.1,25.98,132.5
"2010-08-09 00:58:30",55138,5.749,172.1,4.382,0.603,22.26,110.0943,25.14,26.02,30.79,0,111.2,13.1,25.98,134.1
"2010-08-09 00:59:00",55139,5.302,167.8,2.327,0.246,22.23,110.0985,25.15,26,30.71,0,111.2,13.1,25.99,129.8
"2010-08-09 00:59:30",55140,5.224,165.7,2.17,0.119,22.2,110.1033,25.16,26.02,30.81,0,111.2,13.1,26.00,127.7
"2010-08-09 01:00:00",55141,5.23,166.5,1.545,0.201,22.25,110.1016,25.16,26.02,30.81,0,111.2,13.11,26.00,128.5
"2010-08-09 01:00:30",55142,5.35,165.8,1.164,0.149,22.2,110.101,25.15,26.03,30.8,0,111.2,13.11,25.99,127.8
"2010-08-09 01:01:00",55143,5.254,162.1,2.031,0.353,22.2,110.0996,25.15,26.02,30.69,0,111.2,13.11,25.99,124.1
"2010-08-09 01:01:30",55144,5.101,159.4,1.548,0.268,22.15,110.094,25.14,26.02,30.7,0,111.2,13.11,25.98,121.4
"2010-08-09 01:02:00",55145,5.305,158.8,2.709,0.306,22.2,110.0881,25.12,26.02,30.64,0,111.2,13.11,25.96,120.8
"2010-08-09 01:02:30",55146,5.625,162.5,3.279,0.429,22.25,110.0862,25.12,26.02,30.63,0,111.2,13.11,25.96,124.5
"2010-08-09 01:03:00",55147,5.404,170.8,2.657,0.231,22.27,110.0845,25.11,26,30.65,0,111.2,13.11,25.95,132.8
"2010-08-09 01:03:30",55148,5.781,169,1.554,0.15,22.37,110.0828,25.11,26.01,30.63,0,111.2,13.11,25.95,131.0
"2010-08-09 01:04:00",55149,5.652,170.7,2.5,0.132,22.32,110.0825,25.11,26.02,30.67,0,111.2,13.11,25.95,132.7
"2010-08-09 01:04:30",55150,5.911,170.1,3.506,0.136,22.35,110.0797,25.1,26.01,30.65,0,111.2,13.11,25.94,132.1
"2010-08-09 01:05:00",55151,5.428,165.1,2.813,0.202,22.3,110.0803,25.1,26.01,30.65,0,111.2,13.11,25.94,127.1
"2010-08-09 01:05:30",55152,5.07,160,3.28,0.159,22.25,110.0797,25.1,25.99,30.68,0,111.2,13.11,25.94,122.0
"2010-08-09 01:06:00",55153,5.189,162.4,1.471,0.226,22.24,110.08,25.1,26,30.7,0,111.2,13.11,25.94,124.4
"2010-08-09 01:06:30",55154,5.71,159.7,1.374,0.257,22.27,110.0791,25.1,26.01,30.77,0,111.2,13.11,25.94,121.7
"2010-08-09 01:07:00",55155,5.36,156.2,2.479,0.232,22.26,110.0791,25.1,26,30.76,0,111.2,13.11,25.94,118.2
"2010-08-09 01:07:30",55156,5.175,162.6,2.241,0.132,22.26,110.0755,25.09,26,30.75,0,111.2,13.11,25.93,124.6
"2010-08-09 01:08:00",55157,5.59,167.9,2.104,0.282,22.34,110.078,25.1,25.99,30.89,0,111.2,13.11,25.93,129.9
"2010-08-09 01:08:30",55158,5.69,168.7,2.06,0.324,22.35,110.0763,25.09,25.99,30.96,0,111.2,13.11,25.93,130.7
"2010-08-09 01:09:00",55159,5.232,165.8,2.373,0.25,22.35,110.078,25.1,25.99,31.1,0,111.2,13.11,25.93,127.8
"2010-08-09 01:09:30",55160,5.304,167.6,3.395,0.255,22.34,110.0744,25.09,26,30.9,0,111.2,13.11,25.93,129.6
"2010-08-09 01:10:00",55161,4.873,166.6,2.438,0.259,22.34,110.0763,25.09,25.99,30.75,0,111.2,13.11,25.93,128.6
"2010-08-09 01:10:30",55162,4.752,163.7,2.075,0.092,22.25,110.0741,25.08,25.98,30.75,0,111.2,13.11,25.92,125.7
"2010-08-09 01:11:00",55163,5.308,162.5,2.539,0.334,22.36,110.0707,25.08,25.97,30.77,0,111.2,13.11,25.92,124.5
"2010-08-09 01:11:30",55164,5.468,158.3,2.041,0.176,22.42,110.0719,25.08,25.98,30.79,0,111.2,13.11,25.92,120.3
"2010-08-09 01:12:00",55165,5.298,161.1,2.358,0.101,22.48,110.0716,25.08,25.98,30.92,0,111.2,13.1,25.92,123.1
"2010-08-09 01:12:30",55166,5.665,163.1,1.671,0.214,22.61,110.0713,25.08,25.97,30.79,0,111.2,13.1,25.92,125.1
"2010-08-09 01:13:00",55167,5.508,161.3,4.292,0.191,22.64,110.0707,25.08,25.98,30.85,0,111.2,13.1,25.92,123.3
"2010-08-09 01:13:30",55168,4.981,159.6,2.04,0.248,22.62,110.0707,25.08,25.97,30.79,0,111.2,13.1,25.92,121.6
"2010-08-09 01:14:00",55169,4.984,157.4,2.777,0.198,22.65,110.0707,25.08,25.97,30.87,0,111.2,13.1,25.92,119.4
"2010-08-09 01:14:30",55170,5.538,162.7,2.524,0.28,22.67,110.0707,25.08,25.97,30.87,0,111.2,13.1,25.92,124.7
"2010-08-09 01:15:00",55171,5.855,156.2,2.379,0.248,22.61,110.0707,25.08,25.97,30.89,0,111.2,13.1,25.92,118.2
"2010-08-09 01:15:30",55172,5.607,161.4,3.121,0.323,22.61,110.0707,25.08,25.98,30.84,0,111.2,13.1,25.92,123.4
"2010-08-09 01:16:00",55173,5.615,160.4,2.59,0.088,22.54,110.0707,25.08,25.97,30.81,0,111.2,13.1,25.92,122.4
"2010-08-09 01:16:30",55174,5.493,157,2.934,0.149,22.48,110.0707,25.08,25.97,30.76,0,111.2,13.1,25.92,119.0
"2010-08-09 01:17:00",55175,5.764,154.5,1.281,0.145,22.48,110.0707,25.08,25.97,30.8,0,111.2,13.11,25.92,116.5
"2010-08-09 01:17:30",55176,5.689,155.1,2.939,0.164,22.47,110.0707,25.08,25.98,30.79,0,111.2,13.11,25.92,117.1
"2010-08-09 01:18:00",55177,5.293,158.4,2.165,0.16,22.5,110.0707,25.08,25.97,30.79,0,111.2,13.11,25.92,120.4
"2010-08-09 01:18:30",55178,5.142,158.9,2.282,0.124,22.56,110.0707,25.08,25.97,30.85,0,111.2,13.11,25.92,120.9
"2010-08-09 01:19:00",55179,5.506,156.2,2.165,0.33,22.62,110.0707,25.08,25.98,30.88,0,111.2,13.11,25.92,118.2
"2010-08-09 01:19:30",55180,5.785,152.6,5.793,0.286,22.71,110.0713,25.08,25.97,30.97,0,111.2,13.11,25.92,114.6
"2010-08-09 01:20:00",55181,5.586,150,3.292,0.435,22.72,110.071,25.08,25.96,30.96,0,111.2,13.11,25.92,112.0
"2010-08-09 01:20:30",55182,5.619,155.1,2.497,0.14,22.74,110.071,25.08,25.96,30.82,0,111.2,13.11,25.92,117.1
"2010-08-09 01:21:00",55183,5.83,160,1.418,0.115,22.78,110.0699,25.07,25.96,30.79,0,111.2,13.11,25.91,122.0
"2010-08-09 01:21:30",55184,5.671,155.9,2.141,0.179,22.7,110.0674,25.07,25.97,30.82,0,111.2,13.11,25.91,117.9
"2010-08-09 01:22:00",55185,5.986,161.4,3.442,0.246,22.73,110.0653,25.06,25.95,30.79,0,111.2,13.11,25.90,123.4
"2010-08-09 01:22:30",55186,5.64,163.6,3.424,0.25,22.75,110.0655,25.06,25.94,30.77,0,111.2,13.11,25.90,125.6
"2010-08-09 01:23:00",55187,5.206,160.2,1.598,0.082,22.7,110.0695,25.07,25.95,30.77,0,111.2,13.11,25.91,122.2
"2010-08-09 01:23:30",55188,5.15,159.8,2.166,0.188,22.73,110.0711,25.08,25.96,30.92,0,111.2,13.11,25.92,121.8
"2010-08-09 01:24:00",55189,5.667,167,1.823,0.118,22.84,110.0684,25.07,25.95,30.86,0,111.2,13.11,25.91,129.0
"2010-08-09 01:24:30",55190,5.54,168.8,4.519,0.349,22.86,110.0656,25.06,25.95,30.87,0,111.2,13.11,25.90,130.8
"2010-08-09 01:25:00",55191,5.132,160.2,2.334,0.212,22.82,110.0637,25.06,25.94,31.02,0,111.2,13.11,25.90,122.2
"2010-08-09 01:25:30",55192,5.378,164.1,3.876,0.128,22.86,110.0625,25.06,25.95,31.02,0,111.2,13.11,25.89,126.1
"2010-08-09 01:26:00",55193,5.373,169.8,2.121,0.192,22.88,110.0629,25.06,25.95,30.98,0,111.2,13.11,25.90,131.8
"2010-08-09 01:26:30",55194,4.656,164.5,4.523,0.255,22.84,110.061,25.05,25.94,31.03,0,111.2,13.11,25.89,126.5
"2010-08-09 01:27:00",55195,4.849,158.8,3.43,0.387,22.82,110.0586,25.05,25.94,31.17,0,111.2,13.11,25.88,120.8
"2010-08-09 01:27:30",55196,5.316,168.7,2.29,0.185,22.83,110.0623,25.05,25.94,31.26,0,111.2,13.11,25.89,130.7
"2010-08-09 01:28:00",55197,5.306,171.4,3.323,0.203,22.74,110.0647,25.06,25.95,31.23,0,111.2,13.11,25.90,133.4
"2010-08-09 01:28:30",55198,5.399,171.6,3.038,0.179,22.68,110.0643,25.06,25.93,31.09,0,111.2,13.11,25.90,133.6
"2010-08-09 01:29:00",55199,5.426,163.5,3.607,0.24,22.66,110.0645,25.06,25.93,31.24,0,111.2,13.11,25.90,125.5
"2010-08-09 01:29:30",55200,4.963,163.7,4.813,0.315,22.63,110.0648,25.06,25.93,31.26,0,111.2,13.11,25.90,125.7
"2010-08-09 01:30:00",55201,4.744,165.2,2.555,0.294,22.68,110.0642,25.06,25.93,31.28,0,111.2,13.11,25.90,127.2
"2010-08-09 01:30:30",55202,5.306,165.4,2.524,0.136,22.72,110.0648,25.06,25.94,31.3,0,111.2,13.11,25.90,127.4
"2010-08-09 01:31:00",55203,5.268,164.3,3.95,0.116,22.77,110.0648,25.06,25.92,31.32,0,111.2,13.11,25.90,126.3
"2010-08-09 01:31:30",55204,5.228,170.7,2.159,0.089,22.8,110.0648,25.06,25.93,31.32,0,111.2,13.11,25.90,132.7
"2010-08-09 01:32:00",55205,5.503,169.3,2.369,0.24,22.77,110.0648,25.06,25.91,31.42,0,111.2,13.11,25.90,131.3
"2010-08-09 01:32:30",55206,5.371,171.5,1.817,0.32,22.79,110.0648,25.06,25.91,31.49,0,111.2,13.11,25.90,133.5
"2010-08-09 01:33:00",55207,6.041,172.9,1.29,0.234,22.79,110.0658,25.06,25.92,31.46,0,111.2,13.11,25.90,134.9
"2010-08-09 01:33:30",55208,6.055,172.6,2.17,0.109,22.79,110.0646,25.06,25.9,31.52,0,111.2,13.11,25.90,134.6
"2010-08-09 01:34:00",55209,5.789,174.5,2.945,0.283,22.8,110.0605,25.05,25.89,31.64,0,111.2,13.11,25.89,136.5
"2010-08-09 01:34:30",55210,4.847,177.5,3.599,0.21,22.76,110.0499,25.02,25.89,31.69,0,111.2,13.11,25.86,139.5
"2010-08-09 01:35:00",55211,4.834,182.8,5.041,0.227,22.73,110.0382,24.99,25.89,31.71,0,111.2,13.12,25.83,144.8
"2010-08-09 01:35:30",55212,4.781,196.5,3.866,0.286,22.68,110.0339,24.98,25.87,30.77,0,111.2,13.12,25.82,158.5
"2010-08-09 01:36:00",55213,5.415,201.3,2.627,0.225,22.67,110.0336,24.98,25.85,30.21,0,111.2,13.12,25.82,163.3
"2010-08-09 01:36:30",55214,5.121,205.8,3.354,0.174,22.62,110.0367,24.99,25.85,30.28,0,111.2,13.12,25.83,167.8
"2010-08-09 01:37:00",55215,5.151,209,2.205,0.164,22.58,110.037,24.99,25.85,30.51,0,111.2,13.12,25.83,171.0
"2010-08-09 01:37:30",55216,4.855,212.6,2.348,0.252,22.56,110.0386,24.99,25.85,30.69,0,111.2,13.12,25.83,174.6
"2010-08-09 01:38:00",55217,5.026,211.5,6.472,0.267,22.56,110.0384,24.99,25.84,30.5,0,111.2,13.12,25.83,173.5
"2010-08-09 01:38:30",55218,4.722,204.2,1.472,0.259,22.56,110.0352,24.99,25.82,30.02,0,111.2,13.12,25.82,166.2
"2010-08-09 01:39:00",55219,4.542,212.4,3.204,0.225,22.5,110.0338,24.98,25.83,30.41,0,111.2,13.12,25.82,174.4
"2010-08-09 01:39:30",55220,5,217.1,2.758,0.226,22.5,110.0284,24.97,25.82,30.43,0,111.2,13.12,25.81,179.1
"2010-08-09 01:40:00",55221,4.645,217.4,5.541,0.157,22.46,110.0258,24.96,25.81,30.47,0,111.2,13.12,25.80,179.4
"2010-08-09 01:40:30",55222,4.847,210.4,3.159,0.226,22.5,110.018,24.94,25.8,30.21,0,111.2,13.12,25.78,172.4
"2010-08-09 01:41:00",55223,5.04,209.9,3.543,0.232,22.53,110.0188,24.94,25.81,30.24,0,111.2,13.12,25.78,171.9
"2010-08-09 01:41:30",55224,4.408,213.5,2.863,0.164,22.47,110.0154,24.93,25.8,30.53,0,111.2,13.12,25.77,175.5
"2010-08-09 01:42:00",55225,4.178,207.2,2.223,0.177,22.53,110.007,24.91,25.8,30.16,0,111.2,13.12,25.75,169.2
"2010-08-09 01:42:30",55226,4.473,223.4,4.012,0.289,22.4,110.0067,24.91,25.79,30.87,0,111.2,13.12,25.75,185.4
"2010-08-09 01:43:00",55227,4.36,222.1,3.429,0.288,22.41,110.0062,24.91,25.79,31.19,0,111.2,13.12,25.75,184.1
"2010-08-09 01:43:30",55228,4.357,219.5,2.356,0.248,22.44,109.989,24.87,25.76,31.11,0,111.2,13.12,25.70,181.5
"2010-08-09 01:44:00",55229,4.543,218.5,2.612,0.199,22.47,109.9806,24.84,25.74,30.73,0,111.2,13.12,25.68,180.5
"2010-08-09 01:44:30",55230,4.784,213.9,3.013,0.192,22.45,109.9761,24.83,25.74,30.69,0,111.1,13.12,25.67,175.9
"2010-08-09 01:45:00",55231,5.148,215.2,2.842,0.359,22.45,109.9733,24.83,25.73,30.79,0,111.2,13.12,25.66,177.2
"2010-08-09 01:45:30",55232,5.331,221.5,3.44,0.199,22.42,109.973,24.83,25.72,31.36,0,111.2,13.12,25.66,183.5
"2010-08-09 01:46:00",55233,5.097,222.5,3.557,0.259,22.44,109.9728,24.82,25.72,31.93,0,111.1,13.12,25.66,184.5
"2010-08-09 01:46:30",55234,4.886,218.2,1.93,0.153,22.47,109.9551,24.78,25.69,31.9,0,111.1,13.11,25.62,180.2
"2010-08-09 01:47:00",55235,4.603,217.1,3.782,0.211,22.51,109.9402,24.74,25.68,32.08,0,111.2,13.12,25.58,179.1
"2010-08-09 01:47:30",55236,4.737,214.3,6.444,0.165,22.55,109.9393,24.74,25.66,31.88,0,111.2,13.11,25.58,176.3
"2010-08-09 01:48:00",55237,4.984,215.3,4.316,0.355,22.6,109.9393,24.74,25.63,31.59,0,111.2,13.11,25.58,177.3
"2010-08-09 01:48:30",55238,4.227,211.4,2.221,0.299,22.62,109.9393,24.74,25.64,31.18,0,111.2,13.11,25.58,173.4
"2010-08-09 01:49:00",55239,4.393,215.3,6.694,0.306,22.58,109.9393,24.74,25.63,31.36,0,111.2,13.11,25.58,177.3